Date,TemperatureHighF,TemperatureAvgF,TemperatureLowF,DewpointHighF,DewpointAvgF,DewpointLowF,HumidityHigh,HumidityAvg,HumidityLow,PressureMaxIn,PressureMinIn,WindSpeedMaxMPH,WindSpeedAvgMPH,GustSpeedMaxMPH,PrecipitationSumIn
2013-4-1,71.2,61.6,56.8,39.2,25.4,14.6,51,28,14,29.92,29.80,15,3,15,0.00
2013-4-2,67.8,62.7,59.4,36.5,30.8,20.5,40,31,22,29.92,29.62,6,3,7,0.00
2013-4-3,66.0,63.6,61.3,33.5,24.3,18.8,34,23,18,29.62,29.59,15,6,21,0.00
2013-4-4,62.2,59.1,56.7,28.8,21.9,14.8,34,25,16,29.92,29.71,9,3,10,0.00
2013-4-5,70.5,63.9,58.3,23.6,20.9,18.5,26,20,14,29.98,29.83,11,4,13,0.00
2013-4-6,71.2,67.3,58.8,33.9,28.5,23.8,39,25,17,29.83,29.80,4,1,6,0.00
2013-4-7,68.5,63.2,61.2,42.9,40.6,38.3,50,44,33,29.71,29.39,10,4,10,0.00
2013-4-8,56.5,56.1,55.8,36.3,35.4,34.3,47,46,43,29.92,29.89,5,1,5,0.00
2013-4-9,66.6,61.6,56.5,36.5,25.0,18.8,47,26,17,29.98,29.92,8,3,11,0.00
2013-4-10,69.8,66.8,62.8,23.1,20.9,18.5,18,17,17,29.95,29.95,12,6,13,0.00
2013-4-11,70.7,66.6,58.1,29.1,22.5,18.5,28,19,14,30.01,29.98,8,4,10,0.00
2013-4-12,72.7,65.5,56.7,36.3,24.9,19.4,46,23,16,30.07,30.07,8,3,10,0.00
2013-4-13,72.1,67.3,58.5,29.6,23.3,17.8,33,19,14,30.10,30.10,7,3,9,0.00
2013-4-14,72.5,64.8,61.2,30.8,28.2,23.4,30,25,16,30.13,30.07,17,4,17,0.00
2013-4-15,61.9,57.7,54.3,30.6,25.5,17.1,37,29,19,30.13,30.04,13,3,13,0.00
2013-4-16,60.1,57.0,51.1,36.0,24.3,17.1,55,30,19,30.10,30.07,10,4,12,0.08
2013-4-17,64.0,58.3,53.6,23.7,19.7,15.4,31,23,16,30.13,30.10,15,4,15,0.00
2013-4-18,63.1,58.5,55.6,16.2,13.2,11.5,17,17,16,30.13,30.07,7,4,15,0.00
2013-4-19,61.0,55.9,52.3,16.2,13.2,10.4,21,18,16,30.07,29.98,11,3,11,0.00
2013-4-20,62.8,61.7,59.7,19.6,17.8,14.4,19,18,16,30.04,30.04,10,4,10,0.00
2013-4-21,70.0,62.7,51.8,23.1,20.5,18.5,32,21,14,30.07,29.98,10,2,11,0.00
2013-4-22,65.5,65.5,65.5,16.6,16.6,16.6,15,15,15,30.04,30.04,0,0,2,0.00
2013-4-23,71.8,65.3,61.3,28.3,24.2,20.7,28,21,16,30.24,30.19,8,2,8,0.00
2013-4-24,75.6,64.9,62.2,21.9,19.5,18.5,21,17,13,30.33,30.30,5,1,5,0.00
2013-4-25,78.8,73.9,61.3,27.3,24.9,19.0,24,16,13,30.33,30.22,9,4,9,0.00
2013-4-26,81.1,64.9,61.2,27.7,24.2,18.5,27,22,14,30.22,30.04,9,0,9,0.00
2013-4-27,77.7,68.4,63.7,29.0,26.6,22.4,26,22,13,30.04,29.95,8,1,8,0.00
2013-4-28,79.9,72.7,62.6,28.1,23.9,18.6,24,16,12,30.07,30.01,8,3,10,0.00
2013-4-29,89.8,72.8,62.2,32.2,25.4,18.5,24,18,12,30.16,30.10,6,1,8,0.00
2013-4-30,89.6,74.5,66.2,32.0,26.6,24.0,20,17,12,30.16,30.13,8,1,8,0.00